TVS2LU LKPR-EBBR

Flight info

Callsign TVS2LU
Flight time 1h 2m
Altitude 32000
Route BALTU DCT DONAD DCT RAPET Z93 KODUK DCT MARZA DCT TEKTU DCT TESGA DCT UMUPU T880 BATTY
Aircraft B739/M-SDE2E3FGHIRWXY/LB1

Departure

Time 2026-05-07 18:59
Airport Václav Havel Airport Prague (LKPR)

Arrival

Time 2026-05-07 20:02
Airport Brussels Airport (EBBR)
Time Latitude Longitude Altitude Speed Heading
2026-05-07 18:25 50.10410 14.26634 1173 ft 0 kts 34°
2026-05-07 18:48 50.10408 14.26632 1173 ft 3 kts 34°
2026-05-07 18:49 50.10386 14.26614 1171 ft 4 kts
2026-05-07 18:49 50.10369 14.26622 1171 ft 1 kts 304°
2026-05-07 18:51 50.10369 14.26621 1172 ft 1 kts 304°
2026-05-07 18:51 50.10384 14.26588 1168 ft 6 kts 304°
2026-05-07 18:52 50.10415 14.26517 1170 ft 8 kts 304°
2026-05-07 18:52 50.10450 14.26440 1170 ft 10 kts 305°
2026-05-07 18:52 50.10483 14.26363 1170 ft 9 kts 304°
2026-05-07 18:52 50.10522 14.26272 1171 ft 11 kts 298°
2026-05-07 18:53 50.10536 14.26146 1173 ft 13 kts 264°
2026-05-07 18:53 50.10497 14.26029 1174 ft 13 kts 183°
2026-05-07 18:53 50.10428 14.26125 1173 ft 15 kts 127°
2026-05-07 18:53 50.10355 14.26275 1174 ft 20 kts 127°
2026-05-07 18:54 50.10268 14.26456 1174 ft 21 kts 127°
2026-05-07 18:54 50.10182 14.26634 1177 ft 20 kts 127°
2026-05-07 18:54 50.10099 14.26806 1184 ft 20 kts 127°
2026-05-07 18:54 50.10018 14.26973 1194 ft 19 kts 127°
2026-05-07 18:55 50.09940 14.27134 1199 ft 18 kts 127°
2026-05-07 18:55 50.09864 14.27289 1201 ft 18 kts 129°
2026-05-07 18:55 50.09779 14.27424 1204 ft 17 kts 135°
2026-05-07 18:55 50.09698 14.27550 1205 ft 16 kts 134°
2026-05-07 18:56 50.09647 14.27630 1208 ft 16 kts 140°
2026-05-07 18:56 50.09555 14.27585 1212 ft 15 kts 217°
2026-05-07 18:56 50.09503 14.27524 1212 ft 6 kts 216°
2026-05-07 18:56 50.09493 14.27513 1211 ft 0 kts 216°
2026-05-07 18:57 50.09461 14.27476 1210 ft 9 kts 217°
2026-05-07 18:57 50.09423 14.27405 1209 ft 9 kts 268°
2026-05-07 18:57 50.09440 14.27350 1208 ft 0 kts 306°
2026-05-07 18:58 50.09442 14.27346 1208 ft 4 kts 306°
2026-05-07 18:59 50.09564 14.27092 1206 ft 66 kts 307°
2026-05-07 18:59 50.09989 14.26211 1194 ft 136 kts 307°
2026-05-07 18:59 50.10646 14.24858 1513 ft 166 kts 309°
2026-05-07 18:59 50.11364 14.23382 2365 ft 172 kts 309°
2026-05-07 19:00 50.12070 14.21917 3276 ft 175 kts 309°
2026-05-07 19:00 50.12853 14.20299 3596 ft 199 kts 309°
2026-05-07 19:00 50.13734 14.18478 3769 ft 222 kts 308°
2026-05-07 19:00 50.14692 14.16486 4157 ft 233 kts 307°
2026-05-07 19:01 50.15652 14.14487 4886 ft 231 kts 306°
2026-05-07 19:01 50.16645 14.12420 5212 ft 248 kts 306°
2026-05-07 19:01 50.17657 14.10127 5647 ft 260 kts 293°
2026-05-07 19:01 50.17972 14.07371 6470 ft 259 kts 270°
2026-05-07 19:02 50.17959 14.04569 7299 ft 260 kts 269°
2026-05-07 19:02 50.17937 14.01725 7995 ft 264 kts 269°
2026-05-07 19:02 50.17918 13.98830 8619 ft 271 kts 269°
2026-05-07 19:02 50.17906 13.95860 9314 ft 276 kts 269°
2026-05-07 19:03 50.17900 13.92839 10019 ft 280 kts 269°
2026-05-07 19:03 50.17899 13.89746 10448 ft 294 kts 269°
2026-05-07 19:03 50.17901 13.86436 10629 ft 316 kts 270°
2026-05-07 19:03 50.17908 13.82899 10799 ft 336 kts 270°
2026-05-07 19:04 50.17917 13.79149 11075 ft 351 kts 270°
2026-05-07 19:04 50.17928 13.75306 11625 ft 357 kts 270°
2026-05-07 19:04 50.17939 13.71418 12241 ft 361 kts 270°
2026-05-07 19:04 50.17950 13.67491 12903 ft 363 kts 270°
2026-05-07 19:05 50.17961 13.63521 13470 ft 369 kts 270°
2026-05-07 19:05 50.17970 13.59517 14127 ft 370 kts 270°
2026-05-07 19:05 50.17979 13.55490 14696 ft 373 kts 270°
2026-05-07 19:05 50.17986 13.51433 15267 ft 375 kts 270°
2026-05-07 19:06 50.17992 13.47343 15826 ft 378 kts 270°
2026-05-07 19:06 50.18000 13.39075 16972 ft 383 kts 270°
2026-05-07 19:06 50.18001 13.34926 17531 ft 385 kts 270°
2026-05-07 19:07 50.18002 13.30741 18088 ft 387 kts 270°
2026-05-07 19:07 50.18000 13.26524 18580 ft 390 kts 270°
2026-05-07 19:07 50.17997 13.22277 19047 ft 393 kts 270°
2026-05-07 19:07 50.17993 13.18002 19520 ft 395 kts 270°
2026-05-07 19:08 50.17987 13.13707 19990 ft 397 kts 270°
2026-05-07 19:08 50.17979 13.09387 20456 ft 400 kts 271°
2026-05-07 19:08 50.17970 13.05029 20919 ft 402 kts 271°
2026-05-07 19:08 50.17959 13.00648 21374 ft 405 kts 271°
2026-05-07 19:09 50.17946 12.96242 21828 ft 408 kts 271°
2026-05-07 19:09 50.17931 12.91810 22245 ft 411 kts 271°
2026-05-07 19:09 50.17915 12.87330 22621 ft 415 kts 271°
2026-05-07 19:09 50.17897 12.82880 23055 ft 417 kts 271°
2026-05-07 19:10 50.17877 12.78347 23507 ft 419 kts 271°
2026-05-07 19:10 50.17855 12.73787 23893 ft 421 kts 271°
2026-05-07 19:10 50.17831 12.69212 24264 ft 423 kts 271°
2026-05-07 19:10 50.17804 12.64618 24636 ft 424 kts 271°
2026-05-07 19:11 50.17776 12.60003 24991 ft 426 kts 271°
2026-05-07 19:11 50.17747 12.55364 25331 ft 429 kts 271°
2026-05-07 19:11 50.17715 12.50711 25669 ft 431 kts 271°
2026-05-07 19:11 50.17681 12.46028 25988 ft 433 kts 271°
2026-05-07 19:12 50.17645 12.41319 26304 ft 435 kts 271°
2026-05-07 19:12 50.17607 12.36588 26621 ft 437 kts 271°
2026-05-07 19:12 50.17567 12.31835 26939 ft 439 kts 271°
2026-05-07 19:12 50.17525 12.27062 27257 ft 441 kts 271°
2026-05-07 19:13 50.17481 12.22263 27567 ft 443 kts 271°
2026-05-07 19:13 50.17434 12.17459 27952 ft 443 kts 270°
2026-05-07 19:13 50.17385 12.12661 28439 ft 441 kts 270°
2026-05-07 19:13 50.17334 12.07895 28924 ft 439 kts 270°
2026-05-07 19:14 50.17282 12.03138 29352 ft 438 kts 270°
2026-05-07 19:14 50.17228 11.98385 29722 ft 438 kts 270°
2026-05-07 19:14 50.17173 11.93633 29932 ft 442 kts 270°
2026-05-07 19:14 50.17115 11.88825 30213 ft 444 kts 270°
2026-05-07 19:15 50.17055 11.84025 30614 ft 441 kts 270°
2026-05-07 19:15 50.16993 11.79260 31031 ft 438 kts 270°
2026-05-07 19:15 50.16929 11.74512 31362 ft 438 kts 269°
2026-05-07 19:15 50.16864 11.69760 31639 ft 438 kts 269°
2026-05-07 19:16 50.16796 11.65014 31937 ft 438 kts 269°
2026-05-07 19:16 50.16727 11.60256 32048 ft 440 kts 269°
2026-05-07 19:16 50.16582 11.50734 32043 ft 438 kts 269°
2026-05-07 19:17 50.16431 11.41255 32068 ft 437 kts 269°
2026-05-07 19:17 50.16271 11.31779 32070 ft 437 kts 269°
2026-05-07 19:18 50.16104 11.22291 32061 ft 438 kts 269°
2026-05-07 19:18 50.15928 11.12792 32061 ft 438 kts 269°
2026-05-07 19:19 50.15745 11.03310 32063 ft 439 kts 268°
2026-05-07 19:19 50.15554 10.93803 32072 ft 439 kts 268°
2026-05-07 19:20 50.15356 10.84285 32073 ft 439 kts 268°
2026-05-07 19:20 50.15149 10.74762 32075 ft 439 kts 268°
2026-05-07 19:21 50.14934 10.65247 32080 ft 439 kts 268°
2026-05-07 19:21 50.14712 10.55744 32072 ft 438 kts 268°
2026-05-07 19:22 50.14483 10.46264 32079 ft 437 kts 268°
2026-05-07 19:22 50.14249 10.36815 32082 ft 436 kts 268°
2026-05-07 19:23 50.14181 10.27448 32073 ft 434 kts 276°
2026-05-07 19:23 50.15540 10.18247 32088 ft 433 kts 286°
2026-05-07 19:24 50.17233 10.09328 32084 ft 433 kts 286°
2026-05-07 19:24 50.18917 10.00283 32083 ft 433 kts 286°
2026-05-07 19:25 50.20561 9.91260 32081 ft 434 kts 286°
2026-05-07 19:25 50.22196 9.82192 32084 ft 434 kts 285°
2026-05-07 19:26 50.23824 9.73111 32074 ft 435 kts 285°
2026-05-07 19:26 50.25449 9.64004 32079 ft 435 kts 285°
2026-05-07 19:27 50.27070 9.54880 32073 ft 436 kts 285°
2026-05-07 19:27 50.28686 9.45738 32076 ft 436 kts 285°
2026-05-07 19:28 50.30295 9.36585 32071 ft 437 kts 285°
2026-05-07 19:28 50.31897 9.27427 32074 ft 436 kts 285°
2026-05-07 19:29 50.33492 9.18271 32078 ft 436 kts 285°
2026-05-07 19:29 50.35122 9.09142 32074 ft 435 kts 287°
2026-05-07 19:30 50.36943 9.00109 32080 ft 435 kts 288°
2026-05-07 19:30 50.38770 8.91083 32078 ft 434 kts 287°
2026-05-07 19:31 50.40559 8.82052 32074 ft 434 kts 287°
2026-05-07 19:31 50.42329 8.73026 32079 ft 433 kts 287°
2026-05-07 19:32 50.44094 8.63994 32083 ft 433 kts 287°
2026-05-07 19:32 50.45363 8.54779 32092 ft 433 kts 279°
2026-05-07 19:33 50.46231 8.45424 32086 ft 433 kts 278°
2026-05-07 19:33 50.47101 8.36065 32081 ft 433 kts 279°
2026-05-07 19:34 50.48005 8.26712 32085 ft 434 kts 279°
2026-05-07 19:34 50.48919 8.17350 32084 ft 434 kts 279°
2026-05-07 19:35 50.49831 8.07955 31842 ft 438 kts 278°
2026-05-07 19:35 50.50286 8.03241 31590 ft 436 kts 278°
2026-05-07 19:35 50.50736 7.98545 31323 ft 434 kts 278°
2026-05-07 19:36 50.51184 7.93843 30997 ft 436 kts 278°
2026-05-07 19:36 50.51634 7.89112 30675 ft 437 kts 278°
2026-05-07 19:36 50.52080 7.84391 30359 ft 438 kts 278°
2026-05-07 19:36 50.52526 7.79656 30026 ft 438 kts 278°
2026-05-07 19:37 50.52970 7.74920 29652 ft 439 kts 278°
2026-05-07 19:37 50.53413 7.70170 29281 ft 439 kts 278°
2026-05-07 19:37 50.53854 7.65421 28917 ft 439 kts 278°
2026-05-07 19:37 50.54293 7.60673 28555 ft 439 kts 278°
2026-05-07 19:38 50.54729 7.55937 28205 ft 439 kts 278°
2026-05-07 19:38 50.55166 7.51181 27854 ft 440 kts 278°
2026-05-07 19:38 50.55600 7.46418 27511 ft 440 kts 277°
2026-05-07 19:38 50.55980 7.41647 27171 ft 441 kts 273°
2026-05-07 19:39 50.56060 7.36819 27102 ft 442 kts 270°
2026-05-07 19:39 50.56048 7.31963 27077 ft 445 kts 269°
2026-05-07 19:39 50.56041 7.28742 27073 ft 445 kts 269°
2026-05-07 19:39 50.56052 7.23875 27053 ft 445 kts 270°
2026-05-07 19:40 50.56082 7.19022 27067 ft 443 kts 270°
2026-05-07 19:40 50.56094 7.14176 27062 ft 442 kts 268°
2026-05-07 19:40 50.55984 7.09348 27069 ft 442 kts 267°
2026-05-07 19:40 50.55834 7.04523 27018 ft 443 kts 267°
2026-05-07 19:41 50.55697 6.99656 26625 ft 446 kts 267°
2026-05-07 19:41 50.55578 6.94837 26292 ft 435 kts 268°
2026-05-07 19:41 50.55463 6.90144 25951 ft 424 kts 267°
2026-05-07 19:41 50.55344 6.85557 25618 ft 416 kts 267°
2026-05-07 19:42 50.55224 6.81034 25301 ft 414 kts 267°
2026-05-07 19:42 50.55103 6.76508 24990 ft 414 kts 267°
2026-05-07 19:42 50.54981 6.71987 24683 ft 414 kts 268°
2026-05-07 19:42 50.55048 6.67461 24363 ft 414 kts 276°
2026-05-07 19:43 50.55547 6.63010 24061 ft 414 kts 284°
2026-05-07 19:43 50.56437 6.58712 23767 ft 413 kts 289°
2026-05-07 19:43 50.57399 6.54453 23419 ft 412 kts 289°
2026-05-07 19:43 50.58359 6.50214 23068 ft 411 kts 288°
2026-05-07 19:44 50.59313 6.45980 22626 ft 409 kts 288°
2026-05-07 19:44 50.60246 6.41805 22111 ft 402 kts 288°
2026-05-07 19:44 50.61158 6.37697 21543 ft 392 kts 288°
2026-05-07 19:44 50.62047 6.33666 20693 ft 390 kts 288°
2026-05-07 19:45 50.62936 6.29613 19961 ft 392 kts 288°
2026-05-07 19:45 50.63819 6.25578 19475 ft 387 kts 288°
2026-05-07 19:45 50.64683 6.21624 19223 ft 372 kts 288°
2026-05-07 19:45 50.65489 6.17931 19086 ft 353 kts 288°
2026-05-07 19:46 50.66274 6.14326 18911 ft 344 kts 288°
2026-05-07 19:46 50.67043 6.10782 18522 ft 341 kts 288°
2026-05-07 19:46 50.67810 6.07245 18017 ft 341 kts 288°
2026-05-07 19:46 50.68573 6.03719 17546 ft 339 kts 288°
2026-05-07 19:47 50.69331 6.00208 17112 ft 335 kts 288°
2026-05-07 19:47 50.70076 5.96752 16587 ft 333 kts 288°
2026-05-07 19:47 50.70823 5.93283 16076 ft 334 kts 288°
2026-05-07 19:47 50.71565 5.89832 15676 ft 331 kts 287°
2026-05-07 19:48 50.72301 5.86407 15290 ft 328 kts 287°
2026-05-07 19:48 50.73030 5.83002 14875 ft 327 kts 287°
2026-05-07 19:48 50.73755 5.79616 14474 ft 325 kts 287°
2026-05-07 19:48 50.74475 5.76241 14082 ft 324 kts 287°
2026-05-07 19:49 50.75191 5.72883 13671 ft 322 kts 287°
2026-05-07 19:49 50.75902 5.69543 13257 ft 320 kts 287°
2026-05-07 19:49 50.76607 5.66225 12835 ft 318 kts 287°
2026-05-07 19:49 50.77307 5.62926 12416 ft 316 kts 287°
2026-05-07 19:50 50.78003 5.59640 11988 ft 315 kts 287°
2026-05-07 19:50 50.78697 5.56358 11572 ft 314 kts 288°
2026-05-07 19:50 50.79380 5.53122 11323 ft 302 kts 288°
2026-05-07 19:50 50.80026 5.50062 11198 ft 285 kts 287°
2026-05-07 19:51 50.80639 5.47153 10917 ft 275 kts 288°
2026-05-07 19:51 50.81240 5.44293 10448 ft 274 kts 288°
2026-05-07 19:51 50.81839 5.41437 9964 ft 274 kts 288°
2026-05-07 19:51 50.82436 5.38588 9460 ft 272 kts 288°
2026-05-07 19:52 50.83028 5.35759 9004 ft 269 kts 288°
2026-05-07 19:52 50.83597 5.33037 8901 ft 253 kts 288°
2026-05-07 19:52 50.84138 5.30445 8614 ft 245 kts 288°
2026-05-07 19:52 50.84671 5.27886 8192 ft 245 kts 288°
2026-05-07 19:53 50.85203 5.25331 7832 ft 244 kts 288°
2026-05-07 19:53 50.85733 5.22787 7498 ft 242 kts 288°
2026-05-07 19:53 50.86258 5.20258 7154 ft 241 kts 288°
2026-05-07 19:53 50.86781 5.17738 6826 ft 240 kts 288°
2026-05-07 19:54 50.87300 5.15229 6469 ft 240 kts 287°
2026-05-07 19:54 50.87873 5.12749 6126 ft 239 kts 298°
2026-05-07 19:54 50.88785 5.10526 6128 ft 246 kts 305°
2026-05-07 19:54 50.89812 5.08344 6052 ft 246 kts 307°
2026-05-07 19:55 50.90850 5.06193 5727 ft 246 kts 307°
2026-05-07 19:55 50.91897 5.04026 5290 ft 249 kts 308°
2026-05-07 19:55 50.92945 5.01843 4916 ft 249 kts 308°
2026-05-07 19:55 50.93989 4.99656 4560 ft 248 kts 308°
2026-05-07 19:56 50.94868 4.97313 4242 ft 248 kts 289°
2026-05-07 19:56 50.95318 4.94686 4055 ft 246 kts 283°
2026-05-07 19:56 50.95684 4.92128 3991 ft 236 kts 283°
2026-05-07 19:56 50.96033 4.89630 3992 ft 230 kts 283°
2026-05-07 19:57 50.96375 4.87161 3991 ft 229 kts 282°
2026-05-07 19:57 50.96711 4.84715 4007 ft 221 kts 282°
2026-05-07 19:57 50.96772 4.82403 3972 ft 202 kts 253°
2026-05-07 19:57 50.96289 4.80325 3870 ft 200 kts 251°
2026-05-07 19:58 50.95869 4.78252 3625 ft 199 kts 251°
2026-05-07 19:58 50.95422 4.76203 3348 ft 194 kts 250°
2026-05-07 19:58 50.94965 4.74211 3085 ft 191 kts 249°
2026-05-07 19:58 50.94506 4.72236 2829 ft 191 kts 249°
2026-05-07 19:59 50.94045 4.70258 2575 ft 191 kts 249°
2026-05-07 19:59 50.93587 4.68285 2307 ft 190 kts 249°
2026-05-07 19:59 50.93132 4.66327 2048 ft 189 kts 249°
2026-05-07 19:59 50.92689 4.64414 1777 ft 180 kts 249°
2026-05-07 20:00 50.92258 4.62558 1543 ft 179 kts 249°
2026-05-07 20:00 50.91834 4.60725 1302 ft 173 kts 250°
2026-05-07 20:00 50.91437 4.59011 1091 ft 160 kts 250°
2026-05-07 20:00 50.91068 4.57416 873 ft 153 kts 250°
2026-05-07 20:01 50.90705 4.55844 662 ft 151 kts 250°
2026-05-07 20:01 50.90350 4.54312 416 ft 145 kts 250°
2026-05-07 20:01 50.90010 4.52829 237 ft 141 kts 250°
2026-05-07 20:01 50.89685 4.51429 172 ft 125 kts 250°
2026-05-07 20:02 50.89428 4.50312 175 ft 91 kts 250°
2026-05-07 20:02 50.89255 4.49572 175 ft 39 kts 250°
2026-05-07 20:02 50.89242 4.49295 174 ft 17 kts 296°
2026-05-07 20:02 50.89302 4.49171 168 ft 10 kts 310°
2026-05-07 20:03 50.89366 4.49109 165 ft 13 kts 10°
2026-05-07 20:03 50.89458 4.49144 161 ft 15 kts 15°
2026-05-07 20:03 50.89500 4.49162 159 ft 5 kts 14°
2026-05-07 20:03 50.89536 4.49176 157 ft 6 kts 14°
2026-05-07 20:04 50.89591 4.49184 154 ft 10 kts 343°
2026-05-07 20:04 50.89663 4.49154 150 ft 13 kts 10°
2026-05-07 20:04 50.89765 4.49194 144 ft 17 kts 14°
2026-05-07 20:04 50.89888 4.49244 137 ft 20 kts 14°
2026-05-07 20:05 50.90033 4.49303 128 ft 22 kts 14°
2026-05-07 20:05 50.90124 4.49340 128 ft 12 kts 15°
2026-05-07 20:05 50.90207 4.49375 127 ft 13 kts 15°
2026-05-07 20:05 50.90303 4.49403 123 ft 14 kts 351°
2026-05-07 20:06 50.90386 4.49321 122 ft 14 kts 334°
2026-05-07 20:06 50.90482 4.49254 119 ft 15 kts 334°
2026-05-07 20:06 50.90567 4.49191 121 ft 13 kts 336°
2026-05-07 20:06 50.90642 4.49115 120 ft 14 kts 295°
2026-05-07 20:07 50.90617 4.48977 117 ft 13 kts 244°
2026-05-07 20:07 50.90580 4.48853 119 ft 11 kts 245°
2026-05-07 20:07 50.90547 4.48740 117 ft 11 kts 245°
2026-05-07 20:07 50.90516 4.48631 118 ft 11 kts 246°
2026-05-07 20:08 50.90485 4.48521 118 ft 12 kts 246°
2026-05-07 20:08 50.90443 4.48395 119 ft 13 kts 218°
2026-05-07 20:08 50.90385 4.48409 117 ft 6 kts 155°
2026-05-07 20:08 50.90365 4.48423 116 ft 1 kts 156°
2026-05-07 20:09 50.90362 4.48425 120 ft 0 kts 155°
2026-05-07 20:09 50.90360 4.48426 120 ft 0 kts 155°